DW2973 Weather Reports


time (UTC)temp
C
wind
direction
speed
KPH
gust
KPH
rain 1hr
cm
rain 24hr
cm
rain mn
cm
humidity
%
barometer
mb
20260508151540 18 142 0.0 0.0 0.00 0.00 0.00 25 1021.7
20260508150040 18 153 0.0 0.0 0.00 0.00 0.00 25 1021.8
20260508144549 18 202 0.0 0.0 0.00 0.00 0.00 24 1022.0
20260508143036 18 133 0.0 0.0 0.00 0.00 0.00 28 1022.1
20260508141536 18 132 0.0 0.0 0.00 0.00 0.00 28 1022.0
20260508140036 19 138 0.0 0.0 0.00 0.00 0.00 28 1021.9
20260508134545 18 141 0.0 0.0 0.00 0.00 0.00 29 1022.1
20260508133046 18 157 0.0 0.0 0.00 0.00 0.00 37 1022.1
20260508131532 17 241 3.2 0.0 0.00 0.00 0.00 36 1022.1
20260508130034 18 99 0.0 0.0 0.00 0.00 0.00 33 1022.3
20260508124536 18 194 0.0 0.0 0.00 0.00 0.00 35 1022.1
20260508123043 18 264 0.0 0.0 0.00 0.00 0.00 34 1022.2
20260508121530 18 184 1.6 0.0 0.00 0.00 0.00 35 1022.2
20260508120027 17 204 0.0 0.0 0.00 0.00 0.00 35 1022.5
20260508114525 17 238 1.6 0.0 0.00 0.00 0.00 35 1022.3
20260508113024 17 231 0.0 0.0 0.00 0.00 0.00 34 1022.5
20260508111532 17 236 3.2 0.0 0.00 0.00 0.00 35 1022.5
20260508110025 17 144 1.6 0.0 0.00 0.00 0.00 36 1022.5
20260508104522 17 215 1.6 0.0 0.00 0.00 0.00 36 1022.5
20260508103022 17 196 0.0 0.0 0.00 0.00 0.00 39 1022.4
20260508101519 17 206 1.6 0.0 0.00 0.00 0.00 43 1022.3
20260508100019 17 182 1.6 0.0 0.00 0.00 0.00 44 1022.3
20260508094517 17 206 1.6 0.0 0.00 0.00 0.00 49 1022.4
20260508093018 17 192 0.0 0.0 0.00 0.00 0.00 48 1022.2
20260508091513 17 184 0.0 0.0 0.00 0.00 0.00 49 1022.2
20260508090012 16 164 0.0 0.0 0.00 0.00 0.00 53 1022.1
20260508084505 15 28 0.0 0.0 0.00 0.00 0.00 57 1022.2
20260508083007 15 120 0.0 0.0 0.00 0.00 0.00 61 1022.1
20260508081502 15 129 0.0 0.0 0.00 0.00 0.00 62 1022.1
20260508080058 14 148 0.0 0.0 0.00 0.00 0.00 63 1022.0
20260508074553 13 138 0.0 0.0 0.00 0.00 0.00 67 1021.8
20260508073107 12 141 0.0 0.0 0.00 0.00 0.00 71 1021.7
20260508071546 11 125 0.0 0.0 0.00 0.00 0.00 73 1021.6
20260508070046 11 115 0.0 0.0 0.00 0.00 0.00 78 1021.6
20260508064538 10 117 0.0 0.0 0.00 0.00 0.00 87 1021.4
20260508063038 10 25 0.0 0.0 0.00 0.00 0.00 92 1021.2
20260508061540 9 25 0.0 0.0 0.00 0.00 0.00 94 1021.0
20260508060029 8 25 0.0 0.0 0.00 0.00 0.00 94 1021.0
20260508054525 6 25 0.0 0.0 0.00 0.00 0.00 94 1021.0
20260508053022 6 25 0.0 0.0 0.00 0.00 0.00 93 1020.9
20260508051521 5 25 0.0 0.0 0.00 0.00 0.00 93 1021.0
20260508050020 5 25 0.0 0.0 0.00 0.00 0.00 93 1020.9
20260508044519 5 25 0.0 0.0 0.00 0.00 0.00 93 1020.8
20260508043019 5 25 0.0 0.0 0.00 0.00 0.00 93 1020.7
20260508041520 5 25 0.0 0.0 0.00 0.00 0.00 92 1020.6
20260508040016 5 25 0.0 0.0 0.00 0.00 0.00 92 1020.5
20260508034517 5 25 0.0 0.0 0.00 0.00 0.00 92 1020.5
20260508033014 5 25 0.0 0.0 0.00 0.00 0.00 92 1020.5
20260508031514 5 25 0.0 0.0 0.00 0.00 0.00 91 1020.4
20260508030013 5 25 0.0 0.0 0.00 0.00 0.00 92 1020.4
20260508024531 5 25 0.0 0.0 0.00 0.00 0.00 91 1020.1
20260508023010 4 25 0.0 0.0 0.00 0.00 0.00 91 1020.0
20260508021510 4 25 0.0 0.0 0.00 0.00 0.00 90 1020.0
20260508020010 5 25 0.0 0.0 0.00 0.00 0.00 90 1020.0
20260508014508 5 25 0.0 0.0 0.00 0.00 0.00 90 1020.0
20260508013007 4 25 0.0 0.0 0.00 0.00 0.00 89 1019.8
20260508010007 4 25 0.0 0.0 0.00 0.00 0.00 87 1019.7
20260508004500 4 25 0.0 0.0 0.00 0.00 0.00 87 1019.6
20260508003058 5 25 0.0 0.0 0.00 0.00 0.00 87 1019.6
20260508001557 5 25 0.0 0.0 0.00 0.00 0.00 87 1019.6
20260508000055 5 25 0.0 0.0 0.00 0.00 0.00 86 1019.6
20260507234557 5 25 0.0 0.0 0.00 0.00 0.00 86 1019.5
20260507233058 6 25 0.0 0.0 0.00 0.00 0.00 86 1019.5
20260507231551 6 25 0.0 0.0 0.00 0.00 0.00 85 1019.4
20260507230105 6 25 0.0 0.0 0.00 0.00 0.00 84 1019.4
20260507224553 6 25 0.0 0.0 0.00 0.00 0.00 84 1019.3
20260507223046 6 25 0.0 0.0 0.00 0.00 0.00 85 1019.2
20260507221547 6 25 0.0 0.0 0.00 0.00 0.00 85 1019.2
20260507220050 6 25 0.0 0.0 0.00 0.00 0.00 85 1019.2
20260507214544 6 25 0.0 0.0 0.00 0.00 0.00 84 1019.2
20260507213044 6 25 0.0 0.0 0.00 0.00 0.00 84 1019.1
20260507211543 6 25 0.0 0.0 0.00 0.00 0.00 84 1019.0